CHINASAT 16 (SJ-13)

Last updated on Sat Jun 14 2025 00:02:47 GMT+0000 (Coordinated Universal Time)

1 42662U 17018A 25163.78368350 -.00000335 00000+0 00000+0 0 9994 2 42662 0.0503 96.2185 0003527 132.8439 64.9004 1.00265747 30039
UTC large
Height (km)
Speed (km/s)
/
Latitude / Longitude
Inclination (degrees)
Orbital Period (minutes)
Azimuth
Elevation
Range (km)
Doppler Factor

Next 0 passes for location: London (51.5072 / 0.1276)

Sorry there are no passes over London.